COSMOS 2514 (751)

Last updated on Mon Feb 16 2026 00:03:20 GMT+0000 (Coordinated Universal Time)

1 41330U 16008A 26046.27757122 -.00000038 00000+0 00000+0 0 9997 2 41330 65.0933 317.1931 0009494 213.3699 146.6178 2.13102757 78021
UTC large
Height (km)
Speed (km/s)
/
Latitude / Longitude
Inclination (degrees)
Orbital Period (minutes)
Azimuth
Elevation
Range (km)
Doppler Factor

Next 0 passes for location: London (51.5072 / 0.1276)

Sorry there are no passes over London.